ニート彗星

P/2003 U3 ( NEAT )

English version
Home page
Updated on April 3, 2004

---------------------------------------------------------------------

・ プロフィール

発見日 2003年10月22日
発見光度 18.9等
発見者 Near-Earth-Asteroid Tracking Team (Jet Propulsion Laboratory)

・ 軌道要素

Epoch 2003 May 1.0 TT = JDT 2452760.5
T 2003 Apr. 22.97613 TT                                 MPC
q   2.4952485            (2000.0)            P               Q
n   0.08593151     Peri.  356.20493     +0.96411226     +0.26434155
a   5.0858991      Node   348.37698     -0.24024242     +0.82898844
e   0.5093791      Incl.    7.04784     -0.11300939     +0.49285059
P  11.47

・ 星図

・ 光度変化

        m1 = 12.5 + 5 logΔ + 10.0 log r

---------------------------------------------------------------------

軌道要素はM.P.E.C. 2004-A11に掲載されたものです。
星図は StellaNavigator Ver.2.0 for Windows (アストロアーツ 編著 / アスキー出版局刊) で作成したものです。
光度グラフはComet for Windowsで作成したものです。

---------------------------------------------------------------------

Copyright(C) Seiichi Yoshida (comet@aerith.net). All rights reserved.